RH
21 15 14 17 18 17 17 18 18 18 16 14 12 11 8 6 6 23 68 76 78 67 52 34 8 7 8 8 12 14 15 16 15 15 15 14 15 15 15 15 15 16 17
20 14 11 13 14 15 16 16 17 17 16 14 14 14 12 9 6 6 10 13 13 7 7 7 7 10 15 16 16 16 16 17 17 17 17 17 17 17 17 17 16 16 16
23 16 11 11 12 12 13 14 16 17 17 16 15 14 14 14 12 11 11 10 10 10 12 14 16 17 17 20 22 25 27 27 28 28 25 26 28 28 27 24 21 20 20
28 21 17 16 15 13 13 13 15 17 18 19 19 18 16 15 15 16 16 16 16 16 16 18 21 25 28 29 29 28 26 24 24 22 23 23 22 22 22 24 26 28 28
30 29 27 26 25 22 19 15 15 15 17 20 22 22 22 22 21 22 22 22 23 25 28 29 28 27 26 24 24 22 22 23 20 19 21 21 23 23 22 21 21 20 22
33 33 34 35 34 32 30 27 22 17 16 17 21 25 26 27 27 26 25 24 24 24 23 22 21 21 22 22 22 21 21 22 20 22 22 22 24 23 25 26 26 24 22
34 36 37 38 38 38 37 35 34 32 25 19 19 21 21 22 22 22 22 21 21 21 21 22 24 26 28 33 40 42 44 46 45 46 46 46 46 44 42 35 29 29 29
37 37 38 38 39 39 39 39 39 38 37 35 29 26 26 30 33 34 37 38 41 43 44 46 48 49 50 50 51 51 51 51 51 51 51 52 52 52 52 52 52 50 40
36 38 38 38 38 39 39 40 40 41 41 41 40 39 41 42 38 37 40 43 45 46 47 48 49 49 50 50 51 51 51 51 52 52 52 52 51 52 52 52 53 53 53
38 39 39 39 39 40 40 40 40 41 42 42 43 43 44 45 46 46 47 47 47 48 49 49 49 50 50 51 51 51 51 52 52 52 52 53 53 53 52 52 52 52 51
38 39 39 39 40 40 40 41 41 42 42 42 43 43 44 45 45 46 46 47 47 48 48 48 49 50 50 50 50 51 51 52 53 55 56 56 56 55 55 55 55 53 52
42 40 39 39 39 39 40 40 41 41 42 42 42 43 43 44 44 45 45 45 46 46 47 47 48 49 49 50 50 51 52 54 54 52 52 49 41 36 38 44 48 54 57
81 42 40 40 39 39 39 40 40 40 41 41 41 42 42 42 43 43 43 43 44 44 45 46 47 48 49 49 49 50 51 53 50 43 39 34 31 31 32 32 34 36 41
48 42 42 43 43 39 38 38 39 40 40 40 40 40 40 40 40 40 40 41 42 43 43 44 46 46 47 48 49 50 48 48 42 37 34 34 35 36 39 42 42 42 40
60 57 53 42 42 40 39 38 38 38 38 38 39 39 38 37 39 41 38 36 36 34 34 37 39 40 41 44 44 43 43 42 40 37 36 36 38 43 49 52 46 44 45
59 66 67 50 41 41 41 40 39 38 38 38 38 38 36 41 40 28 27 28 27 27 27 25 23 24 28 30 36 40 42 42 43 41 39 41 47 54 57 60 54 44 44
64 61 68 66 65 51 40 39 39 39 37 37 37 36 43 36 29 32 35 36 36 36 37 36 34 26 23 24 27 31 35 39 42 41 43 51 54 45 48 54 48 28 30
58 57 59 61 61 61 57 47 38 38 37 37 36 43 34 31 34 34 36 37 36 36 37 38 38 37 31 25 24 26 30 36 39 36 41 53 53 31 25 20 21 25 27
64 64 64 57 54 52 61 56 52 47 41 41 44 34 34 35 35 36 37 38 37 34 32 32 33 33 31 28 31 39 45 41 43 35 23 27 27 22 22 20 17 19 24
62 65 66 63 64 62 57 56 52 48 46 43 38 37 36 36 36 34 34 30 29 26 26 28 28 29 30 36 40 39 44 34 30 26 21 23 24 26 22 17 16 18 25
65 62 68 69 68 59 55 53 52 46 44 41 40 40 37 36 33 28 27 28 28 28 28 29 41 40 39 39 47 39 39 36 27 19 16 20 23 22 17 18 22 26 29
73 64 67 68 65 63 53 52 50 45 43 46 46 31 29 29 30 30 30 29 29 28 26 22 20 22 29 33 35 32 23 19 18 20 21 17 19 20 19 22 28 32 36
72 74 71 69 67 60 62 53 50 49 51 52 45 38 36 35 33 32 31 31 30 27 22 18 17 17 17 16 19 31 26 20 19 22 22 20 20 18 20 33 45 43 48
73 68 74 73 71 68 63 59 47 46 45 42 41 40 38 36 34 34 34 33 29 24 22 20 16 15 14 15 17 20 24 24 27 21 24 23 25 28 36 53 45 24 38
77 70 69 70 65 59 50 43 42 44 43 42 41 39 35 32 31 32 33 30 29 27 23 18 15 13 14 16 18 20 22 23 24 23 20 25 37 50 50 86 28 25 28
61 70 74 65 57 54 48 47 47 46 47 46 46 44 37 33 34 34 33 31 29 25 20 16 14 15 16 16 19 21 22 21 19 22 30 35 45 90 96 61 24 25 24
Wind_Speed
8 10 10 12 13 13 13 13 12 12 13 14 15 16 16 15 15 15 16 15 12 8 5 3 5 7 9 11 11 11 12 12 12 13 12 12 12 12 11 11 11 11 9
9 11 12 13 14 14 15 14 14 14 14 15 15 16 16 16 15 14 13 10 8 6 7 8 10 11 12 12 13 13 13 13 14 14 13 15 14 14 14 13 12 11 10
11 13 14 16 17 16 16 16 15 15 15 16 16 16 16 16 15 14 13 12 12 11 11 12 12 13 14 14 14 14 14 13 14 12 12 15 15 15 14 13 13 12 11
12 15 16 19 19 19 18 16 16 15 16 16 17 17 18 18 17 16 15 15 14 14 14 14 14 14 14 13 13 12 11 12 12 12 15 14 14 14 13 12 12 12 11
17 17 17 18 20 21 20 19 17 16 16 17 17 17 18 18 18 17 16 17 16 16 15 14 13 12 13 12 12 12 12 13 12 14 15 14 15 15 14 14 13 12 12
19 17 17 18 19 20 19 20 20 18 16 16 16 16 16 16 15 15 14 14 14 13 13 12 11 12 12 13 13 13 13 15 15 17 17 16 16 16 15 15 15 15 14
20 19 18 17 18 18 18 18 19 19 19 17 15 15 14 14 15 15 14 14 13 13 13 13 13 14 14 14 15 15 15 16 16 17 17 17 17 18 18 17 16 16 15
23 21 18 18 17 16 16 15 15 15 16 17 17 15 14 14 15 15 15 14 14 14 13 13 13 13 12 12 12 12 12 13 13 14 14 15 15 15 16 16 17 17 17
25 22 20 17 18 16 15 13 12 11 12 12 13 14 14 14 13 12 11 10 10 10 9 9 9 9 9 9 10 10 11 12 13 14 14 15 15 15 15 16 16 16 16
27 25 22 19 16 16 14 12 10 8 8 8 8 8 8 8 7 7 7 6 5 4 3 4 5 6 7 8 9 10 12 13 14 15 15 16 17 17 17 17 17 17 17
30 28 25 22 19 16 15 13 10 9 6 4 4 3 2 2 1 1 1 2 3 4 4 5 7 8 9 10 12 13 14 15 16 17 16 17 18 18 19 19 19 18 18
31 30 27 24 21 19 16 14 13 11 9 7 6 5 5 4 4 6 6 8 8 9 9 10 11 11 12 12 14 14 15 16 17 18 17 18 19 18 19 19 19 19 20
26 30 28 26 23 20 18 17 15 13 12 11 9 9 9 9 9 9 11 12 12 13 13 14 14 14 14 15 15 15 16 18 18 18 18 19 20 20 20 19 20 20 20
24 29 29 28 25 23 20 20 18 17 15 14 13 12 12 12 12 13 13 13 14 15 16 15 16 16 16 17 17 18 18 18 18 19 19 20 21 22 21 21 22 22 22
27 27 29 30 28 26 23 22 21 20 18 17 16 15 14 14 13 14 14 14 15 15 16 16 17 18 18 18 19 19 19 20 20 21 22 22 23 24 24 25 26 26 25
25 27 27 25 27 26 26 25 24 21 20 20 18 17 15 13 13 13 14 14 15 15 16 17 18 18 19 20 20 21 21 22 23 24 25 25 26 26 27 28 30 30 29
30 32 26 25 23 25 26 25 25 24 23 21 20 17 15 13 12 13 14 15 17 17 18 18 19 20 20 22 22 23 24 25 26 27 29 30 29 28 29 31 32 32 31
26 26 24 22 22 23 24 24 25 25 23 21 19 17 15 14 14 15 17 18 20 20 21 22 22 23 24 24 25 26 28 27 29 29 30 31 34 35 33 32 31 30 29
25 25 23 25 25 25 24 24 25 24 22 19 18 16 15 16 17 19 20 22 22 23 23 24 25 26 27 27 28 28 29 31 31 33 33 33 34 35 35 33 28 27 26
28 26 25 23 23 23 22 22 23 22 18 18 17 17 18 20 22 22 23 23 24 24 25 26 28 28 29 29 30 32 32 33 35 34 33 32 32 32 31 29 28 26 26
30 30 27 25 23 23 22 22 20 20 19 19 18 19 21 23 23 23 23 24 25 26 27 29 29 30 31 32 33 34 35 33 34 34 34 32 28 27 29 25 28 28 28
31 31 29 29 28 25 24 23 22 22 22 22 21 21 23 23 24 24 26 27 28 29 30 30 31 32 33 32 35 37 39 34 33 34 32 30 28 30 29 29 29 29 27
32 32 31 31 31 30 28 27 25 24 23 23 24 22 22 25 26 27 28 29 30 31 31 32 33 34 36 34 34 35 38 38 34 32 31 30 31 32 32 31 31 27 25
32 33 32 32 32 32 30 28 26 25 25 25 25 25 26 27 28 29 30 31 32 32 33 35 35 36 36 35 33 31 33 34 33 34 29 32 31 32 32 32 32 29 22
35 35 34 34 32 31 31 30 28 28 28 29 30 30 30 31 31 32 32 33 34 35 36 36 36 34 33 33 32 30 31 32 33 36 35 30 31 32 30 31 28 26 26
38 38 35 36 35 33 33 32 31 31 30 31 32 33 32 32 32 33 34 35 36 36 36 35 35 34 33 33 33 32 33 34 32 33 34 32 32 26 31 31 25 24 25
Wind_Direction
147 145 149 137 131 125 118 111 106 100 98 98 98 95 95 101 110 115 116 122 125 121 106 77 40 49 64 68 65 61 58 55 55 57 57 56 54 54 51 52 51 51 47
141 141 142 135 127 121 115 110 105 102 100 99 98 95 95 97 104 113 119 124 122 100 85 77 74 75 73 71 67 64 61 59 58 54 53 53 46 47 47 48 47 45 42
141 136 130 122 117 113 110 106 103 101 100 100 98 100 100 100 100 101 102 100 95 92 89 85 81 80 79 76 70 67 63 60 58 55 47 48 42 40 40 40 38 35 35
145 133 123 114 109 104 101 99 98 99 100 99 99 98 99 99 98 97 97 95 94 91 89 89 88 84 79 73 69 65 59 54 50 44 44 42 37 34 31 30 27 23 24
147 134 123 112 104 99 95 93 93 94 97 98 97 97 98 98 98 98 96 93 92 92 92 91 86 82 77 71 67 61 57 54 47 49 46 42 39 35 31 27 23 18 17
154 143 130 117 108 102 95 90 87 88 90 94 98 98 99 99 98 96 95 96 97 97 97 91 86 82 79 74 67 57 52 46 44 47 45 41 38 34 30 28 25 20 16
161 153 142 131 121 111 103 94 88 85 83 85 90 93 95 97 97 94 92 90 89 87 84 82 79 75 71 66 61 54 49 46 39 42 38 34 32 30 28 25 21 18 15
170 163 158 148 138 129 118 107 97 89 83 80 79 82 86 90 91 92 91 89 87 83 79 75 70 67 61 54 46 39 30 26 20 22 17 16 14 13 12 10 10 10 10
177 175 170 166 155 147 138 127 113 101 90 85 77 74 72 74 79 82 87 84 77 70 67 63 55 48 40 30 19 13 5 4 359 359 3 357 356 356 355 355 354 353 354
179 184 182 179 172 162 156 147 135 124 113 103 93 80 82 76 69 69 64 66 65 59 41 28 19 6 358 354 345 342 341 340 341 341 346 344 342 341 340 338 340 340 340
186 189 189 189 186 181 174 171 166 162 163 157 144 127 110 97 73 6 328 318 301 306 309 310 315 317 320 324 321 325 326 326 327 332 338 334 333 333 331 331 328 325 325
194 193 196 196 197 195 191 192 192 194 196 209 217 232 241 249 258 269 284 290 292 294 294 294 298 302 308 311 313 315 317 318 320 325 330 329 329 329 327 325 322 320 317
203 197 200 205 207 207 204 207 212 214 224 228 236 251 263 272 273 278 286 290 292 293 294 294 295 298 302 303 304 307 309 313 317 321 325 324 324 324 325 324 322 318 315
220 206 208 212 215 216 217 222 221 228 236 243 247 251 264 274 279 285 286 288 291 294 296 293 293 293 296 299 304 306 307 308 311 315 319 319 319 320 320 320 319 317 315
228 225 219 218 221 223 224 228 232 234 240 247 252 256 262 269 278 288 293 295 295 295 296 298 298 300 300 301 302 302 303 304 307 310 314 316 317 316 315 313 315 311 310
221 229 227 229 229 230 230 231 237 241 242 247 251 256 261 267 277 289 296 300 302 304 305 304 302 301 301 301 301 300 301 303 305 308 309 310 313 314 310 309 309 309 306
218 216 219 225 228 232 236 235 236 238 243 246 248 251 253 265 275 285 291 296 299 301 303 305 304 304 303 302 301 299 298 299 303 306 308 309 308 308 305 306 305 306 304
218 224 223 224 227 232 238 238 238 240 243 243 245 243 252 263 273 280 287 293 298 299 299 300 300 300 300 299 298 297 297 300 303 303 304 305 306 307 306 305 304 302 301
221 220 224 228 228 235 237 235 236 236 238 237 237 245 253 266 273 281 287 291 294 295 297 297 296 296 296 297 297 297 298 301 300 302 306 306 304 305 306 307 307 302 299
227 226 224 230 228 230 229 228 229 228 229 233 242 249 262 269 275 279 285 289 291 293 295 295 295 295 295 295 293 294 296 297 300 303 303 306 305 302 303 306 304 303 299
231 231 229 228 230 226 226 226 227 229 230 237 245 256 265 271 276 282 286 288 289 291 293 293 293 292 294 294 294 293 292 296 296 298 301 303 303 299 302 303 300 300 299
228 231 230 228 228 229 230 230 232 235 237 243 251 257 265 274 278 281 284 287 289 290 291 291 291 290 290 291 292 293 295 295 297 297 299 302 304 302 303 302 297 296 295
231 231 232 232 230 231 233 235 237 239 242 247 254 259 268 273 276 280 282 284 286 287 288 289 290 291 291 290 289 289 293 297 300 299 300 300 298 298 299 299 294 295 294
235 235 236 235 237 237 239 237 237 242 247 253 262 268 269 273 276 278 281 282 282 284 286 287 288 288 289 289 287 287 287 291 294 293 290 295 294 291 292 292 293 297 289
237 235 236 239 237 236 235 237 240 246 253 259 264 268 272 274 275 276 278 280 282 284 286 286 287 287 286 287 287 286 284 284 286 290 292 290 288 289 289 287 295 296 296
239 238 235 235 237 236 238 242 245 251 257 263 267 270 273 274 275 278 281 282 284 285 285 286 286 286 286 286 284 285 284 285 286 286 287 288 284 282 284 290 294 294 292